FENGYUN 1C DEB, 33701

Orbit data source: Space-Track

FENGYUN 1C DEB, 33701 is space debris in SSO originally from a launch on Mon, 10 May 1999 UTC launched from the Taiyaun Space Center, China (TSC). Fengyun 1C debris stems from the Chinese weather satellite Fengyun-1C, which was intentionally destroyed by a Chinese anti-satellite missile in 2007. This event dramatically increased the amount of space debris, with thousands of trackable fragments posing hazards to satellites and human spaceflight. The Fengyun 1C debris cloud has become a focal point in discussions about space sustainability and the need for international regulations to prevent the creation of new debris.

Loading next visibility...
Identifier
33701, 1999-025DGN
Orbit
SSO
Country
Flag of CNCN / PRC
Related business
Manufacturer
Unknown
Mission
Spacecraft
Bus & Motor
Unknown
Mass
Unknown
Launch date (UTC)
1999-05-10 (27 years ago)
Launch vehicle
Unknown
Launch site
Taiyaun Space Center, China (TSC)
Object type
Payload
Rocket body
Debris
Shape & HBR
Unknown shape, 0.1 m
Radar Cross Section
Small (<0.1 m²)

Expand to show TLE details & history
Last TLE update: 1 week ago

TLE from 1 week ago
0 FENGYUN 1C DEB
1 33701U 99025DGN 26144.84313082  .00001600  00000-0  97247-3 0  9994
2 33701  98.6743  96.4839 0134985  90.1468 271.5168 14.03116624927927
Epoch: 2026-05-24T20:14Z
TLE epoch observation values (Epoch: 2026-05-24T20:14:06.502Z)
Latitude
0.00001°
Longitude
-89.48266°
Altitude
884.644 km
Speed
7.411 km/s
True Right ascension
06h 25m 56s
True Declination
0° 00' 00"
Sunlit
Object was in daylight at epoch
Visualization orbit readout
Latitude
Unknown
Longitude
Unknown
Altitude
Unknown
Speed
Unknown
Apparent Right ascension
Unknown
Apparent Declination
Unknown
Sunlit
N/A
Visualization observer readout
Local Sidereal Time
19:23:47
Azimuth
Unknown
Elevation
Unknown
Doppler factor
Unknown
Orbital elements
Apogee altitude
978.178 km
Perigee altitude
782.225 km
Semi-major axis
7,258.339 km
Eccentricity
0.0135
Inclination
98.6743°
RAAN
96.4839°
Arg. of periapsis
90.1468°
True anomaly
269.97002°
Mean anomaly
271.5168°
Eccentric anomaly
270.74346°
Mean motion
3.50984 °/min
Orbital period
102.57 mins
BSTAR
0.00097247
Loading maneuver chart data...
Computing Atmospheric mass density...
Loading historical data...
Loading historical data...
Loading historical data...
Loading historical data...
Loading historical data...
Loading historical data...
Loading historical data...

Documentation

Showing up to 5 results
|